Weather History for St. James, MN

Change the Weather History Date:

Tuesday, December 17, 2013

  Actual Average Record
Temperature  
Mean Temperature 25 °F -  
Max Temperature 35 °F 27 °F 50 °F (1962)
Min Temperature 15 °F 11 °F -17 °F (1983)
Degree Days  
Heating Degree Days 40    
Moisture  
Dew Point 19 °F    
Average Humidity 73    
Maximum Humidity 81    
Minimum Humidity 64    
Precipitation  
Precipitation 0.00 in - - ()
Sea Level Pressure  
Sea Level Pressure 30.07 in    
Wind  
Wind Speed 18 mph (West)    
Max Wind Speed 28 mph    
Max Gust Speed 38 mph    
Visibility 9 miles    
Events Snow    
Averages and records for this station are not official NWS values.
T = Trace of Precipitation, MM = Missing Value Source: NWS Daily Summary

Daily Weather History Graph

Daily Weather History Graph

Search for Another Location

Airport:

Trip Planner

Search our weather history database for the weather conditions in past years. The results will help you decide how hot, cold, wet, or windy it might be!

Date:

Astronomy

Dec. 17, 2013 Rise Set
Actual Time 7:47 AM CST 4:41 PM CST
Civil Twilight 7:14 AM CST 5:14 PM CST
Nautical Twilight 6:37 AM CST 5:51 PM CST
Astronomical Twilight 6:02 AM CST 6:26 PM CST
Moon 5:24 PM CST (12/17) 7:42 AM CST (12/17)
Length of Visible Light 10h 00m
Length of Day
8h 53m
Full, 100% of the Moon is Illuminated
Dec 17
Full
Dec 25
Last Quarter
Jan 1
New
Jan 7
First Quarter
Jan 15
Full

Hourly Weather History & Observations

Time (CST) Temp. Windchill Dew Point Humidity Pressure Visibility Wind Dir Wind Speed Gust Speed Precip Events Conditions
12:15 AM 30.2 °F 18.5 °F 24.8 °F 80% 29.98 in 10.0 mi West 17.3 mph 24.2 mph N/A   Clear
12:35 AM 30.2 °F 18.1 °F 24.8 °F 80% 29.98 in 10.0 mi West 18.4 mph - N/A   Scattered Clouds
12:55 AM 33.8 °F 22.5 °F 24.8 °F 70% 29.98 in 10.0 mi WSW 19.6 mph - N/A   Scattered Clouds
1:15 AM 32.0 °F 20.1 °F 24.8 °F 75% 29.98 in 10.0 mi WSW 19.6 mph 23.0 mph N/A   Clear
1:35 AM 32.0 °F 20.5 °F 24.8 °F 75% 29.98 in 10.0 mi WSW 18.4 mph - N/A   Scattered Clouds
1:55 AM 30.2 °F 17.8 °F 24.8 °F 80% 29.97 in 10.0 mi WSW 19.6 mph - N/A   Scattered Clouds
2:15 AM 32.0 °F 20.8 °F 24.8 °F 75% 29.98 in 10.0 mi West 17.3 mph - N/A   Mostly Cloudy
2:35 AM 32.0 °F 19.8 °F 26.6 °F 80% 29.98 in 10.0 mi West 20.7 mph 26.5 mph N/A   Mostly Cloudy
2:55 AM 33.8 °F 22.8 °F 26.6 °F 75% 29.98 in 10.0 mi West 18.4 mph 23.0 mph N/A   Scattered Clouds
3:15 AM 33.8 °F 22.5 °F 26.6 °F 75% 29.98 in 10.0 mi West 19.6 mph 25.3 mph N/A   Scattered Clouds
3:35 AM 33.8 °F 21.6 °F 26.6 °F 75% 29.97 in 10.0 mi West 23.0 mph 29.9 mph N/A   Overcast
3:55 AM 35.6 °F 24.5 °F 26.6 °F 70% 29.98 in 10.0 mi West 20.7 mph 26.5 mph N/A   Scattered Clouds
4:15 AM 33.8 °F 23.5 °F 26.6 °F 75% 29.98 in 10.0 mi West 16.1 mph 24.2 mph N/A   Scattered Clouds
4:35 AM 33.8 °F 23.2 °F 28.4 °F 81% 29.98 in 4.0 mi WNW 17.3 mph 25.3 mph N/A Snow Light Snow
4:55 AM 33.8 °F 23.9 °F 26.6 °F 75% 29.98 in 10.0 mi West 15.0 mph 23.0 mph N/A   Mostly Cloudy
5:15 AM 33.8 °F 21.3 °F 26.6 °F 75% 29.99 in 3.0 mi West 24.2 mph 33.4 mph N/A   Haze
5:35 AM 32.0 °F 20.8 °F 24.8 °F 75% 30.00 in 10.0 mi West 17.3 mph 26.5 mph N/A   Clear
5:55 AM 32.0 °F 19.2 °F 24.8 °F 75% 30.00 in 7.0 mi West 23.0 mph 28.8 mph N/A   Clear
6:15 AM 30.2 °F 16.5 °F 24.8 °F 80% 30.01 in 7.0 mi WNW 24.2 mph 28.8 mph N/A   Clear
6:35 AM 30.2 °F 17.4 °F 23.0 °F 75% 30.01 in 7.0 mi West 20.7 mph 32.2 mph N/A   Clear
6:55 AM 30.2 °F 18.1 °F 21.2 °F 69% 30.01 in 10.0 mi West 18.4 mph 25.3 mph N/A   Clear
7:15 AM 28.4 °F 15.1 °F 21.2 °F 74% 30.01 in 10.0 mi West 20.7 mph 26.5 mph N/A   Clear
7:35 AM 28.4 °F 14.7 °F 21.2 °F 74% 30.02 in 10.0 mi West 21.9 mph 26.5 mph N/A   Clear
7:55 AM 28.4 °F 15.4 °F 21.2 °F 74% 30.03 in 10.0 mi West 19.6 mph - N/A   Clear
8:15 AM 28.4 °F 16.2 °F 21.2 °F 74% 30.04 in 10.0 mi West 17.3 mph - N/A   Clear
8:35 AM 28.4 °F 15.4 °F 21.2 °F 74% 30.04 in 10.0 mi West 19.6 mph - N/A   Clear
8:55 AM 28.4 °F 15.1 °F 21.2 °F 74% 30.06 in 10.0 mi West 20.7 mph 25.3 mph N/A   Clear
9:15 AM 28.4 °F 15.1 °F 19.4 °F 69% 30.07 in 7.0 mi West 20.7 mph - N/A   Clear
9:35 AM 28.4 °F 15.4 °F 19.4 °F 69% 30.07 in 10.0 mi West 19.6 mph - N/A   Clear
9:55 AM 28.4 °F 14.4 °F 19.4 °F 69% 30.08 in 7.0 mi West 23.0 mph 27.6 mph N/A   Clear
10:15 AM 28.4 °F 14.7 °F 19.4 °F 69% 30.09 in 2.5 mi WNW 21.9 mph 36.8 mph N/A   Haze
10:35 AM 28.4 °F 13.8 °F 19.4 °F 69% 30.10 in 3.0 mi WNW 25.3 mph 36.8 mph N/A   Haze
10:55 AM 28.4 °F 13.5 °F 19.4 °F 69% 30.10 in 4.0 mi WNW 26.5 mph 33.4 mph N/A   Haze
11:15 AM 28.4 °F 13.3 °F 19.4 °F 69% 30.09 in 5.0 mi WNW 27.6 mph 33.4 mph N/A   Haze
11:35 AM 28.4 °F 13.8 °F 19.4 °F 69% 30.09 in 7.0 mi WNW 25.3 mph 31.1 mph N/A   Clear
11:54 AM 28.4 °F 13.8 °F 19.4 °F 69% 30.09 in 5.0 mi WNW 25.3 mph 34.5 mph N/A   Haze
12:15 PM 28.4 °F 14.4 °F 19.4 °F 69% 30.09 in 4.0 mi WNW 23.0 mph 38.0 mph N/A   Haze
12:35 PM 28.4 °F 13.3 °F 19.4 °F 69% 30.09 in 7.0 mi WNW 27.6 mph 33.4 mph N/A   Clear
12:55 PM 26.6 °F 11.7 °F 19.4 °F 74% 30.09 in 5.0 mi WNW 24.2 mph 36.8 mph N/A   Haze
1:15 PM 28.4 °F 15.8 °F 17.6 °F 64% 30.09 in 10.0 mi WNW 18.4 mph 28.8 mph N/A   Clear
1:35 PM 28.4 °F 15.4 °F 19.4 °F 69% 30.09 in 10.0 mi West 19.6 mph 29.9 mph N/A   Clear
1:55 PM 28.4 °F 14.4 °F 17.6 °F 64% 30.09 in 10.0 mi West 23.0 mph 29.9 mph N/A   Clear
2:15 PM 28.4 °F 15.4 °F 17.6 °F 64% 30.10 in 10.0 mi West 19.6 mph 25.3 mph N/A   Clear
2:35 PM 26.6 °F 12.4 °F 17.6 °F 69% 30.10 in 10.0 mi West 21.9 mph 29.9 mph N/A   Clear
2:55 PM 26.6 °F 12.7 °F 17.6 °F 69% 30.11 in 10.0 mi West 20.7 mph 28.8 mph N/A   Clear
3:15 PM 26.6 °F 13.1 °F 15.8 °F 64% 30.11 in 10.0 mi West 19.6 mph 27.6 mph N/A   Clear
3:35 PM 26.6 °F 13.8 °F 15.8 °F 64% 30.12 in 10.0 mi West 17.3 mph 20.7 mph N/A   Clear
3:55 PM 26.6 °F 14.7 °F 15.8 °F 64% 30.12 in 10.0 mi West 15.0 mph 19.6 mph N/A   Clear
4:15 PM 24.8 °F 13.4 °F 15.8 °F 69% 30.12 in 10.0 mi West 12.7 mph - N/A   Clear
4:35 PM 24.8 °F 12.9 °F 15.8 °F 69% 30.12 in 10.0 mi West 13.8 mph - N/A   Clear
4:54 PM 21.2 °F 10.1 °F 15.8 °F 80% 30.12 in 10.0 mi West 10.4 mph - N/A   Clear
5:15 PM 21.2 °F 9.5 °F 15.8 °F 80% 30.13 in 10.0 mi West 11.5 mph - N/A   Clear
5:35 PM 21.2 °F 9.5 °F 14.0 °F 74% 30.13 in 10.0 mi West 11.5 mph - N/A   Clear
5:55 PM 21.2 °F 10.1 °F 12.2 °F 68% 30.13 in 10.0 mi West 10.4 mph - N/A   Clear
6:15 PM 21.2 °F 10.1 °F 14.0 °F 74% 30.13 in 10.0 mi WSW 10.4 mph - N/A   Clear
6:34 PM 21.2 °F 10.1 °F 14.0 °F 74% 30.13 in 10.0 mi West 10.4 mph - N/A   Clear
6:55 PM 19.4 °F 8.6 °F 12.2 °F 74% 30.12 in 10.0 mi West 9.2 mph - N/A   Clear
7:15 PM 21.2 °F 10.1 °F 14.0 °F 74% 30.13 in 10.0 mi WSW 10.4 mph - N/A   Clear
7:34 PM 21.2 °F 9.5 °F 12.2 °F 68% 30.13 in 10.0 mi West 11.5 mph - N/A   Clear
7:55 PM 19.4 °F 8.6 °F 12.2 °F 74% 30.13 in 10.0 mi West 9.2 mph - N/A   Clear
8:15 PM 17.6 °F 7.3 °F 12.2 °F 79% 30.13 in 10.0 mi West 8.1 mph - N/A   Clear
8:34 PM 19.4 °F 10.4 °F 12.2 °F 74% 30.12 in 10.0 mi WSW 6.9 mph - N/A   Clear
8:55 PM 15.8 °F 5.1 °F 10.4 °F 79% 30.12 in 10.0 mi SW 8.1 mph - N/A   Clear
9:15 PM 15.8 °F 4.2 °F 10.4 °F 79% 30.13 in 10.0 mi SW 9.2 mph - N/A   Clear
9:35 PM 15.8 °F 4.2 °F 10.4 °F 79% 30.12 in 10.0 mi SW 9.2 mph - N/A   Clear
9:55 PM 15.8 °F 3.4 °F 10.4 °F 79% 30.11 in 10.0 mi SW 10.4 mph - N/A   Clear
10:15 PM 17.6 °F 5.7 °F 12.2 °F 79% 30.11 in 10.0 mi WSW 10.4 mph - N/A   Clear
10:35 PM 15.8 °F 6.1 °F 10.4 °F 79% 30.11 in 10.0 mi SW 6.9 mph - N/A   Clear
10:55 PM 15.8 °F 6.1 °F 10.4 °F 79% 30.10 in 10.0 mi SW 6.9 mph - N/A   Clear
11:15 PM 15.8 °F 8.6 °F 10.4 °F 79% 30.09 in 10.0 mi SSW 4.6 mph - N/A   Clear
11:35 PM 15.8 °F 7.2 °F 10.4 °F 79% 30.08 in 10.0 mi SSW 5.8 mph - N/A   Scattered Clouds
11:55 PM 15.8 °F 7.2 °F 10.4 °F 79% 30.07 in 10.0 mi South 5.8 mph - N/A   Scattered Clouds